Location: Aalen
(48.8330°N, 10.1000°E)
Time: 01:06:23
(UTC+02:00)

METEOR M2 - Pass Details

Date: 22 April 2024
Orbit: 817 x 827 km, 98.4° (Epoch: 19 May)

Event Time Altitude Azimuth Distance (km) Brightness Sun altitude
Rises 05:25:11 0° 30° (NNE) 3,362 ? -8.2°
Reaches altitude 10° 05:28:53 10° 56° (ENE) 2,421 ? -7.7°
Maximum altitude 05:31:30 14° 86° (E) 2,169 ? -7.3°
Drops below altitude 10° 05:34:05 10° 115° (ESE) 2,410 ? -6.9°
Sets 05:37:44 0° 141° (SE) 3,335 ? -6.4°
